TimeMST,TemperatureF,Dew PointF,Humidity,Sea Level PressureIn,VisibilityMPH,Wind Direction,Wind SpeedMPH,Gust SpeedMPH,PrecipitationIn,Events,Conditions,WindDirDegrees,DateUTC
12:15 AM,23.4,16.3,75,30.07,10.0,Calm,Calm,-,N/A,,Clear,0,2013-02-23 07:15:00
12:35 AM,21.2,15.4,78,30.07,10.0,Calm,Calm,-,N/A,,Clear,0,2013-02-23 07:35:00
12:55 AM,21.7,15.8,78,30.07,10.0,East,3.5,-,N/A,,Clear,100,2013-02-23 07:55:00
1:15 AM,21.7,15.8,78,30.07,10.0,ESE,4.6,-,N/A,,Clear,120,2013-02-23 08:15:00
1:35 AM,21.4,15.8,79,30.06,10.0,Calm,Calm,-,N/A,,Clear,0,2013-02-23 08:35:00
1:55 AM,20.3,15.3,81,30.07,10.0,Calm,Calm,-,N/A,,Clear,0,2013-02-23 08:55:00
2:15 AM,21.2,14.9,77,30.06,10.0,Calm,Calm,-,N/A,,Clear,0,2013-02-23 09:15:00
2:35 AM,20.5,14.0,76,30.06,10.0,Calm,Calm,-,N/A,,Clear,0,2013-02-23 09:35:00
2:55 AM,20.1,14.4,78,30.05,10.0,Calm,Calm,-,N/A,,Clear,0,2013-02-23 09:55:00
3:15 AM,19.4,13.8,79,30.04,10.0,Calm,Calm,-,N/A,,Clear,0,2013-02-23 10:15:00
3:35 AM,18.3,13.3,81,30.04,10.0,Calm,Calm,-,N/A,,Clear,0,2013-02-23 10:35:00
3:55 AM,18.3,12.4,78,30.03,10.0,Calm,Calm,-,N/A,,Clear,0,2013-02-23 10:55:00
4:15 AM,18.3,12.6,78,30.04,10.0,Calm,Calm,-,N/A,,Clear,0,2013-02-23 11:15:00
4:35 AM,18.0,13.3,82,30.04,10.0,ESE,4.6,-,N/A,,Clear,110,2013-02-23 11:35:00
4:55 AM,19.0,13.3,78,30.04,10.0,East,5.8,-,N/A,,Clear,80,2013-02-23 11:55:00
5:15 AM,18.1,13.1,81,30.04,10.0,NE,4.6,-,N/A,,Clear,40,2013-02-23 12:15:00
5:35 AM,19.4,13.5,78,30.04,10.0,ENE,5.8,-,N/A,,Clear,60,2013-02-23 12:35:00
5:55 AM,20.1,14.0,77,30.03,10.0,East,4.6,-,N/A,,Scattered Clouds,80,2013-02-23 12:55:00
6:15 AM,20.5,13.6,75,30.02,10.0,East,10.4,-,N/A,,Mostly Cloudy,80,2013-02-23 13:15:00
6:35 AM,20.1,12.7,73,30.02,10.0,ESE,6.9,-,N/A,,Scattered Clouds,110,2013-02-23 13:35:00
6:55 AM,18.5,13.5,81,30.03,10.0,Calm,Calm,-,N/A,,Scattered Clouds,0,2013-02-23 13:55:00
7:15 AM,18.3,13.1,80,30.02,10.0,East,3.5,-,N/A,,Clear,100,2013-02-23 14:15:00
7:35 AM,19.9,14.0,78,30.01,10.0,NE,4.6,-,N/A,,Mostly Cloudy,40,2013-02-23 14:35:00
7:55 AM,21.0,14.0,74,30.02,10.0,NNE,3.5,-,N/A,,Overcast,30,2013-02-23 14:55:00
8:15 AM,21.9,13.8,71,30.02,10.0,ENE,5.8,-,N/A,,Mostly Cloudy,60,2013-02-23 15:15:00
8:35 AM,22.8,13.6,68,30.01,10.0,Calm,Calm,-,N/A,,Overcast,0,2013-02-23 15:35:00
8:55 AM,23.7,14.0,66,30.00,10.0,ENE,4.6,-,N/A,,Overcast,70,2013-02-23 15:55:00
9:15 AM,24.3,15.6,70,30.00,10.0,NE,6.9,-,N/A,,Overcast,50,2013-02-23 16:15:00
9:35 AM,25.7,16.5,68,29.99,10.0,NE,6.9,-,N/A,,Overcast,50,2013-02-23 16:35:00
9:55 AM,27.1,17.2,66,29.97,10.0,ENE,5.8,-,N/A,,Overcast,70,2013-02-23 16:55:00
10:15 AM,28.2,18.3,66,29.97,10.0,ENE,6.9,-,N/A,,Overcast,60,2013-02-23 17:15:00
10:35 AM,28.8,18.3,65,29.95,10.0,ENE,9.2,-,N/A,,Overcast,60,2013-02-23 17:35:00
10:55 AM,29.7,18.7,64,29.94,10.0,ESE,6.9,-,N/A,,Overcast,120,2013-02-23 17:55:00
11:15 AM,30.6,19.4,63,29.92,10.0,East,6.9,-,N/A,,Overcast,100,2013-02-23 18:15:00
11:35 AM,32.4,20.8,63,29.90,10.0,NE,11.5,-,N/A,,Overcast,50,2013-02-23 18:35:00
11:55 AM,34.5,22.5,61,29.89,10.0,NE,16.1,-,N/A,,Overcast,50,2013-02-23 18:55:00
12:15 PM,35.6,22.8,60,29.87,10.0,ENE,15.0,-,N/A,,Overcast,60,2013-02-23 19:15:00
12:35 PM,36.7,22.3,56,29.86,10.0,East,12.7,-,N/A,,Overcast,80,2013-02-23 19:35:00
12:55 PM,39.0,21.7,50,29.83,10.0,ENE,13.8,-,N/A,,Overcast,70,2013-02-23 19:55:00
1:15 PM,38.5,19.6,47,29.81,10.0,ENE,11.5,17.3,N/A,,Scattered Clouds,70,2013-02-23 20:15:00
1:35 PM,40.5,19.0,42,29.78,10.0,ENE,11.5,18.4,N/A,,Clear,60,2013-02-23 20:35:00
1:55 PM,41.2,19.6,42,29.75,10.0,ENE,11.5,-,N/A,,Clear,70,2013-02-23 20:55:00
2:15 PM,42.3,17.2,37,29.73,10.0,East,9.2,-,N/A,,Clear,90,2013-02-23 21:15:00
2:35 PM,41.2,17.2,38,29.75,10.0,ESE,5.8,9.2,N/A,,Scattered Clouds,110,2013-02-23 21:35:00
2:55 PM,40.3,18.0,41,29.74,10.0,ESE,4.6,-,N/A,,Mostly Cloudy,110,2013-02-23 21:55:00
3:15 PM,39.6,18.7,43,29.75,10.0,South,6.9,-,N/A,,Overcast,190,2013-02-23 22:15:00
3:35 PM,38.8,21.2,49,29.74,4.0,SW,4.6,-,N/A,,Unknown,220,2013-02-23 22:35:00
3:55 PM,37.0,23.7,59,29.75,10.0,WNW,3.5,-,N/A,,Overcast,290,2013-02-23 22:55:00
4:15 PM,37.0,23.2,57,29.73,10.0,Calm,Calm,-,N/A,,Overcast,0,2013-02-23 23:15:00
4:35 PM,37.2,23.5,58,29.73,10.0,NNW,3.5,-,N/A,,Overcast,340,2013-02-23 23:35:00
4:55 PM,37.0,23.9,59,29.73,10.0,NNE,3.5,-,N/A,,Overcast,30,2013-02-23 23:55:00
5:15 PM,37.4,23.7,58,29.73,10.0,NE,4.6,-,N/A,,Overcast,40,2013-02-24 00:15:00
5:55 PM,36.3,25.5,65,29.75,7.0,Calm,Calm,-,N/A,Snow,Light Snow,0,2013-02-24 00:55:00
6:15 PM,34.0,28.9,82,29.75,3.0,NE,4.6,-,N/A,Snow,Light Snow,50,2013-02-24 01:15:00
6:35 PM,32.2,30.4,93,29.75,1.8,NE,6.9,-,N/A,Snow,Light Snow,40,2013-02-24 01:35:00
6:55 PM,32.0,30.7,95,29.74,3.0,NE,4.6,-,N/A,Snow,Light Snow,50,2013-02-24 01:55:00
7:15 PM,32.0,30.7,95,29.74,3.0,NE,4.6,-,N/A,Snow,Light Snow,50,2013-02-24 02:15:00
7:35 PM,32.0,31.1,96,29.75,5.0,Calm,Calm,-,N/A,Snow,Light Snow,0,2013-02-24 02:35:00
7:55 PM,32.0,30.9,96,29.75,2.5,Calm,Calm,-,N/A,Snow,Light Snow,0,2013-02-24 02:55:00
8:15 PM,32.0,30.9,96,29.75,1.2,SW,5.8,-,N/A,Snow,Light Snow,220,2013-02-24 03:15:00
8:35 PM,31.6,30.6,96,29.75,1.5,West,8.1,-,N/A,Snow,Light Snow,260,2013-02-24 03:35:00
8:55 PM,31.1,28.9,92,29.75,2.0,WSW,4.6,-,N/A,Snow,Light Snow,250,2013-02-24 03:55:00
9:15 PM,30.9,28.0,89,29.74,5.0,SW,10.4,-,N/A,Snow,Light Snow,230,2013-02-24 04:15:00
9:35 PM,30.4,28.4,92,29.73,5.0,WSW,11.5,-,N/A,Snow,Light Snow,240,2013-02-24 04:35:00
9:55 PM,31.1,27.3,86,29.73,5.0,West,13.8,-,N/A,Snow,Light Snow,260,2013-02-24 04:55:00
10:15 PM,31.1,25.5,80,29.73,10.0,West,18.4,-,N/A,,Overcast,260,2013-02-24 05:15:00
10:35 PM,31.3,25.7,80,29.73,7.0,West,13.8,20.7,N/A,,Overcast,260,2013-02-24 05:35:00
10:55 PM,28.4,23.4,81,29.75,1.0,WNW,24.2,46.0,N/A,Snow,Light Snow,290,2013-02-24 05:55:00
11:15 PM,28.0,23.5,83,29.76,1.5,West,18.4,32.2,N/A,Snow,Light Snow,270,2013-02-24 06:15:00
11:35 PM,27.5,24.4,88,29.76,1.8,West,24.2,32.2,N/A,Snow,Light Snow,260,2013-02-24 06:35:00
11:55 PM,27.5,22.1,80,29.76,4.0,West,20.7,32.2,N/A,,Overcast,260,2013-02-24 06:55:00